Ord, NE

3:35 AM CDT on September 26, 2016 (GMT -0500)
Sharp

Weather History for KODX - February, 2011

Change the Weather History Date:

Sunday, February 13, 2011

  Actual Average Record
Temperature  
Mean Temperature 50 °F 27 °F  
Max Temperature 68 °F 39 °F 68 °F (2011)
Min Temperature 32 °F 15 °F -6 °F (2007)
Degree Days  
Heating Degree Days 15 38  
Month to date heating degree days 563 503  
Since 1 July heating degree days 4697 4479  
Cooling Degree Days 0 0  
Month to date cooling degree days 0 0  
Year to date cooling degree days 0 0  
Moisture  
Dew Point 27 °F    
Average Humidity 47    
Maximum Humidity 75    
Minimum Humidity 19    
Precipitation  
Precipitation 0.00 in 0.01 in 0.97 in (1906)
Month to date precipitation 0.02 0.23  
Year to date precipitation 1.26 0.60  
Sea Level Pressure  
Sea Level Pressure 29.88 in    
Wind  
Wind Speed 12 mph (WNW)    
Max Wind Speed 37 mph    
Max Gust Speed 49 mph    
Visibility 10 miles    
Events      
T = Trace of Precipitation, MM = Missing Value Source: NWS Daily Summary

Daily Weather History Graph

Daily Weather History Graph

Search for Another Location

Airport or City:

Trip Planner

Search our weather history database for the weather conditions in past years. The results will help you decide how hot, cold, wet, or windy it might be!

Date:

Astronomy

Feb. 13, 2011 Rise Set
Actual Time 7:34 AM CST 6:06 PM CST
Civil Twilight 7:05 AM CST 6:35 PM CST
Nautical Twilight 6:32 AM CST 7:07 PM CST
Astronomical Twilight 6:00 AM CST 7:40 PM CST
Moon 1:03 PM CST (2/13) 3:48 AM CST (2/13)
Length of Visible Light 11h 29m
Length of Day
10h 32m
Waxing Gibbous, 74% of the Moon is Illuminated
Feb 13
Waxing Gibbous
Feb 18
Full
Feb 24
Last Quarter
Mar 4
New
Mar 12
First Quarter

Hourly Weather History & Observations

Time (CST) Temp. Windchill Dew Point Humidity Pressure Visibility Wind Dir Wind Speed Gust Speed Precip Events Conditions
12:53 AM 36.0 °F - 28.0 °F 73% 29.94 in 10.0 mi Calm Calm - N/A   Clear
1:53 AM 36.0 °F 33.3 °F 28.0 °F 73% 29.92 in 10.0 mi WNW 3.5 mph - N/A   Clear
2:53 AM 33.1 °F 28.7 °F 27.0 °F 78% 29.90 in 10.0 mi South 4.6 mph - N/A   Clear
3:53 AM 34.0 °F 29.8 °F 26.1 °F 73% 29.86 in 10.0 mi SSW 4.6 mph - N/A   Clear
4:53 AM 35.1 °F - 25.0 °F 67% 29.84 in 10.0 mi Calm Calm - N/A   Clear
5:53 AM 34.0 °F 31.0 °F 25.0 °F 70% 29.84 in 10.0 mi South 3.5 mph - N/A   Clear
6:53 AM 37.0 °F - 24.1 °F 59% 29.81 in 10.0 mi Calm Calm - N/A   Clear
7:53 AM 34.0 °F - 24.1 °F 67% 29.80 in 10.0 mi Calm Calm - N/A   Clear
8:53 AM 44.1 °F 40.1 °F 25.0 °F 47% 29.78 in 10.0 mi WSW 6.9 mph - N/A   Clear
9:53 AM 48.9 °F - 26.1 °F 41% 29.75 in 10.0 mi WSW 16.1 mph 19.6 mph N/A   Clear
10:53 AM 54.0 °F - 28.0 °F 37% 29.73 in 10.0 mi WSW 16.1 mph 19.6 mph N/A   Clear
11:53 AM 59.0 °F - 30.9 °F 35% 29.73 in 10.0 mi West 13.8 mph 21.9 mph N/A   Clear
12:53 PM 63.0 °F - 30.0 °F 29% 29.70 in 10.0 mi West 17.3 mph - N/A   Clear
1:53 PM 68.0 °F - 24.1 °F 19% 29.69 in 10.0 mi WNW 36.8 mph 49.5 mph N/A   Clear
2:53 PM 66.0 °F - 27.0 °F 23% 29.71 in 10.0 mi WNW 34.5 mph 46.0 mph N/A   Clear
3:53 PM 64.0 °F - 30.0 °F 28% 29.76 in 10.0 mi WNW 20.7 mph 28.8 mph N/A   Clear
4:53 PM 60.1 °F - 33.1 °F 36% 29.82 in 10.0 mi NW 12.7 mph 20.7 mph N/A   Clear
5:53 PM 52.0 °F - 30.9 °F 45% 29.91 in 10.0 mi North 25.3 mph 33.4 mph N/A   Clear
6:53 PM 46.0 °F 39.6 °F 30.0 °F 54% 30.00 in 10.0 mi North 15.0 mph - N/A   Clear
7:53 PM 43.0 °F 35.4 °F 25.0 °F 49% 30.06 in 10.0 mi NNW 16.1 mph - N/A   Clear
8:53 PM 42.1 °F 34.9 °F 25.0 °F 51% 30.09 in 10.0 mi NNW 13.8 mph - N/A   Clear
9:53 PM 39.9 °F 34.5 °F 25.0 °F 55% 30.12 in 10.0 mi NW 8.1 mph - N/A   Clear
10:53 PM 36.0 °F 30.3 °F 25.0 °F 64% 30.15 in 10.0 mi NW 6.9 mph - N/A   Clear
11:53 PM 35.1 °F 27.9 °F 24.1 °F 64% 30.17 in 10.0 mi West 9.2 mph - N/A   Clear